GFSNIL_sfc_dewp_294.txt.gz
Dewpoint
14 15 15 15 14 14 14 15 14 15 15 16 17 17 17 18 18 17 18 17 17 18
15 15 15 13 13 14 14 13 15 15 16 16 17 17 17 17 17 17 18 18 19 19
14 14 14 14 13 14 14 15 15 16 16 16 17 17 17 17 18 17 18 17 17 17
14 14 14 14 14 14 15 15 16 16 16 17 17 17 17 17 17 17 17 17 17 17
16 14 13 13 14 15 14 16 17 17 17 17 17 17 17 17 17 17 17 17 17 17
15 17 17 15 14 14 15 15 16 16 16 17 17 17 17 17 17 17 17 17 17 17
13 13 14 15 16 16 16 16 16 16 17 17 17 17 17 17 17 18 19 20 22 23
15 14 13 13 15 17 17 17 17 17 17 17 17 16 19 22 23 24 25 25 24 24
15 14 13 14 14 15 16 17 17 17 18 18 17 22 25 25 26 24 25 24 24 24
16 16 16 16 15 15 15 16 18 18 18 18 18 24 26 26 26 25 24 25 25 24
17 16 15 15 15 15 16 17 18 18 19 20 19 25 25 26 24 24 25 25 24 23
16 15 15 15 15 16 17 18 18 19 20 19 19 24 25 25 24 24 23 23 22 23
15 15 15 15 16 17 18 19 19 18 18 20 19 23 25 24 23 23 23 25 27 25
14 14 16 17 17 19 18 18 17 17 18 18 19 20 25 25 23 25 27 23 21 21

GFSNIL_sfc_dewp_300.txt.gz
Dewpoint
18 18 16 16 16 16 14 15 14 15 15 15 16 17 17 17 17 17 17 16 17 17
17 16 16 15 15 15 15 14 14 15 15 15 16 16 16 16 16 16 17 17 18 18
16 16 15 15 15 15 15 15 15 15 15 15 16 16 16 17 17 17 17 17 17 17
15 15 15 14 14 14 15 15 15 15 15 16 16 16 16 16 16 17 17 17 17 17
15 14 14 14 14 15 15 16 16 16 17 18 19 20 19 19 18 17 17 17 17 18
15 16 15 14 14 15 15 16 19 21 21 21 21 21 20 19 17 18 18 18 18 19
15 15 16 18 19 21 22 22 22 22 22 21 20 18 17 17 18 18 19 20 21 21
18 19 21 22 22 23 22 22 21 20 18 18 18 17 17 18 21 22 23 25 25 26
21 22 22 22 22 23 22 22 19 18 18 18 16 20 24 26 26 25 26 25 24 24
21 21 21 22 22 21 17 17 18 18 18 18 19 22 25 26 27 26 25 24 24 23
21 21 21 21 19 17 18 18 19 19 19 20 19 23 24 25 27 26 25 24 24 24
20 19 18 17 18 19 19 18 19 19 21 20 20 22 23 25 25 24 24 24 24 25
18 18 18 18 18 18 19 19 19 18 19 20 20 22 24 24 25 22 24 26 25 25
17 17 16 17 18 19 19 18 17 18 19 19 21 21 23 24 25 24 26 22 22 22

GFSNIL_sfc_dewp_303.txt.gz
Dewpoint
19 20 18 17 17 17 16 16 15 15 15 16 16 17 17 17 17 17 16 15 16 16
20 19 18 17 17 16 17 15 15 15 15 15 16 16 16 16 15 16 16 16 17 17
18 18 17 16 16 16 16 15 15 15 15 15 15 16 16 16 16 16 17 17 17 17
17 16 16 15 15 15 15 15 15 15 15 15 15 15 15 16 16 16 16 17 17 18
16 15 14 14 14 15 14 16 16 15 16 16 18 18 18 18 18 17 17 17 18 19
15 16 16 14 13 14 15 16 17 19 20 20 21 20 20 20 20 18 19 19 19 21
16 19 19 19 19 19 20 21 21 21 22 22 22 22 20 18 18 19 20 21 22 23
21 22 22 22 23 23 23 23 23 22 21 20 18 18 19 20 22 23 24 24 26 26
22 22 22 23 23 23 23 23 23 22 19 18 17 21 24 24 27 28 27 26 24 24
22 22 22 23 23 22 21 21 20 18 18 20 19 23 25 26 27 27 27 25 24 23
22 21 22 22 21 21 21 20 21 22 20 20 19 23 24 24 27 28 26 25 24 24
21 20 20 20 20 20 21 21 21 20 21 20 19 22 23 24 28 26 25 24 24 24
20 20 20 20 20 21 21 21 20 18 19 20 20 21 23 24 26 27 25 26 24 24
19 19 19 20 20 20 19 19 17 18 18 19 21 22 22 23 26 26 27 23 21 21

GFSNIL_sfc_dewp_306.txt.gz
Dewpoint
22 21 20 19 19 19 18 18 17 16 15 16 17 17 17 17 17 17 16 16 17 16
22 21 20 20 19 19 18 16 16 15 15 15 16 16 16 15 16 16 16 17 17 17
22 21 20 19 18 18 16 15 15 15 14 14 15 15 15 15 16 16 16 16 16 17
20 20 19 18 17 17 16 15 15 14 14 14 14 15 15 15 15 15 16 16 17 17
18 17 17 16 16 16 15 15 15 14 14 15 15 15 15 15 16 16 16 17 18 19
16 18 17 15 14 14 14 14 15 16 16 17 18 18 18 18 19 18 19 19 20 21
16 16 17 16 16 17 17 18 18 19 20 20 20 20 21 20 19 19 21 22 23 23
21 22 22 23 23 24 23 23 24 24 23 23 21 18 18 17 22 24 26 25 25 25
23 23 23 23 24 24 24 25 25 25 24 23 21 21 25 30 27 28 28 26 23 23
24 23 24 25 25 25 24 24 24 23 22 22 24 26 25 27 28 30 28 26 23 22
24 24 24 24 24 23 23 23 23 24 24 24 24 26 28 27 27 29 26 24 23 23
24 23 23 22 22 23 23 23 23 24 24 24 22 22 24 24 29 27 24 23 24 23
23 22 22 22 22 22 23 23 23 24 24 24 21 20 23 24 27 27 24 23 24 23
21 21 21 21 22 22 22 23 21 20 20 19 21 23 23 23 26 26 25 26 21 19